Flag for Albania Weather past 2 weeks in Durrës, Albania

Now
68 °F

Partly sunny.


Feels Like: 68 °F
Forecast: 56 / 68 °F
Wind: 6 mph from South

Location: Tirana Airport


UV Index: 3 (Moderate)

Visibility: N/A


Pressure: 29.83 "Hg

Humidity: 46%

Dew point: 46 °F

Location of DurrësLocation

Historic Weather in Durrës

°F

Durrës temperature yesterday

Maximum temperature yesterday: 57 °F (at 3:50 PM)
Minimum temperature yesterday: 48 °F (at 12:50 AM)
Average temperature yesterday: 52 °F

Past Weeks' High & Low Weather Summary

 TemperatureHumidityPressure
High73 °F (Apr 7, 1:50 PM)94% (Apr 5, 11:50 PM)30.09 "Hg (Apr 5, 11:50 PM)
Low39 °F (Apr 12, 4:20 AM)26% (Apr 10, 3:20 PM)29.65 "Hg (Apr 16, 4:50 AM)
Average54 °F73%29.90 "Hg
* Reported Apr 5 2:20 PM — Apr 20 2:50 PM, Durrës, Weather by CustomWeather, © 2014

Note: Actual official high and low records may vary slightly from our data, if they occured in-between our weather recording intervals... More about our weather records

Advertising

Historic Weather Conditions — Data for Previous 24 hours

 ConditionsComfort  
Time TempWeatherWind HumidityBarometerVisibility
2:50 PM
Apr 20
68 °FBroken clouds.8 mph46%29.83 "HgN/A
2:20 PM68 °FBroken clouds.9 mph43%29.83 "HgN/A
1:50 PM68 °FBroken clouds.10 mph43%29.83 "HgN/A
1:20 PM68 °FScattered clouds.15 mph43%29.83 "HgN/A
12:50 PM66 °FBroken clouds.12 mph46%29.83 "HgN/A
12:20 PM64 °FBroken clouds.9 mph52%29.86 "HgN/A
11:50 AM64 °FThundershowers. Broken clouds.13 mph49%29.86 "HgN/A
11:20 AM63 °FLight rain. Scattered clouds.10 mph56%29.86 "HgN/A
10:50 AM63 °FThundershowers. Broken clouds.8 mph56%29.86 "HgN/A
10:20 AM61 °FBroken clouds.6 mph63%29.86 "HgN/A
9:50 AM59 °FBroken clouds.3 mph68%29.86 "HgN/A
9:20 AM59 °FThundershowers. Broken clouds.6 mph68%29.86 "HgN/A
8:50 AM57 °FThundershowers. Broken clouds.5 mph72%29.83 "HgN/A
8:20 AM55 °FBroken clouds.5 mph77%29.83 "HgN/A
7:50 AM55 °FBroken clouds.8 mph77%29.83 "HgN/A
7:20 AM55 °FBroken clouds.10 mph72%29.83 "HgN/A
6:50 AM54 °FPartly cloudy.8 mph82%29.83 "HgN/A
6:20 AM54 °FPartly cloudy.8 mph77%29.83 "HgN/A
5:50 AM54 °FLight rain. Mostly cloudy.8 mph77%29.83 "HgN/A
5:20 AM54 °FOvercast.5 mph77%29.83 "HgN/A
4:50 AM54 °FLight rain. Passing clouds.5 mph77%29.83 "HgN/A
4:20 AM54 °FRain. Overcast.8 mph82%29.83 "HgN/A
3:50 AM54 °FOvercast.5 mph82%29.83 "HgN/A
3:20 AM54 °FMostly cloudy.7 mph82%29.83 "HgN/A
2:50 AM54 °FMostly cloudy.7 mph82%29.83 "HgN/A
2:20 AM52 °FThundershowers. Overcast.7 mph88%29.86 "HgN/A
1:50 AM52 °FOvercast.3 mph88%29.86 "HgN/A
1:20 AM54 °FOvercast.2 mph82%29.86 "HgN/A
12:50 AM52 °FMostly cloudy.2 mph88%29.86 "HgN/A
12:20 AM52 °FThundershowers. Mostly cloudy.3 mph88%29.86 "HgN/A
11:50 PM
Apr 19
52 °FMostly cloudy.5 mph88%29.86 "HgN/A
11:20 PM52 °FOvercast.5 mph88%29.86 "HgN/A
10:50 PM54 °FPartly cloudy.6 mph82%29.86 "HgN/A
10:20 PM52 °FPartly cloudy.6 mph88%29.86 "HgN/A
9:50 PM54 °FOvercast.6 mph88%29.86 "HgN/A
9:20 PM54 °FPassing clouds.5 mph88%29.86 "HgN/A
8:50 PM54 °FPassing clouds.5 mph88%29.86 "HgN/A
8:20 PM55 °FOvercast.6 mph82%29.86 "HgN/A
7:50 PM55 °FOvercast.6 mph82%29.86 "HgN/A
7:20 PM55 °FBroken clouds.5 mph82%29.83 "HgN/A
6:50 PM55 °FBroken clouds.5 mph88%29.83 "HgN/A
6:20 PM57 °FBroken clouds.6 mph77%29.83 "HgN/A
5:50 PM57 °FLight rain. More clouds than sun.7 mph77%29.83 "HgN/A
5:20 PM57 °FCloudy.7 mph77%29.83 "HgN/A
4:50 PM57 °FMostly cloudy.6 mph77%29.83 "HgN/A
4:20 PM57 °FMostly cloudy.8 mph77%29.83 "HgN/A
3:50 PM57 °FMostly cloudy.9 mph77%29.83 "HgN/A
3:20 PM55 °FMostly cloudy.10 mph82%29.83 "HgN/A
Weather by CustomWeather, © 2014

See weather overview